Location: Dehesa de la Cepeda
(40.6574°N, 4.3013°W)
Time: 20:10:53
(UTC+00:00)

Explorer 7 - Pass Details

Date: 12 August 2021
Orbit: 484 x 676 km, 50.3° (Epoch: 17 September)

Event Time Altitude Azimuth Distance (km) Brightness Sun altitude
Exits shadow 02:44:26 25° 338° (NNW) 1,021 8.4 -25.4°
Maximum altitude 02:44:39 25° 344° (NNW) 1,017 8.5 -25.4°
Drops below altitude 10° 02:47:50 10° 41° (NE) 1,681 10.3 -25.0°
Sets 02:50:19 0° 55° (NE) 2,581 11.5 -24.7°
